When you browse on this site, cookies collect data to enhance your experience and personalize the content and advertising you see.
Visit our Privacy Policy to learn more. By continuing to use the site, you agree to this use of cookies and data.
  • en Suisse
  • Liste des pays
  • À 7 jours
  • Température de l'eau
  • Carte satellitaire
  • Carte météo
  • Widgets météo
  • user-avatar
    Se connecter

    Météo par heure à Plebanivka

    Ce jour, 19 Février, Mardi

    Heure Température Précipitation Vent Pression Humidité
    00:00 +2°C° 0 mm 2 m/s 737 mmHg 91%
    01:00 +2°C° 0 mm 2 m/s 737 mmHg 91%
    02:00 +1°C° 0 mm 2 m/s 737 mmHg 92%
    03:00 +1°C° 0 mm 2 m/s 736 mmHg 92%
    04:00 +1°C° 0 mm 2 m/s 736 mmHg 93%
    05:00 0°C° 0 mm 3 m/s 736 mmHg 93%
    06:00 0°C° 0 mm 3 m/s 736 mmHg 94%
    07:00 0°C° 0 mm 3 m/s 735 mmHg 94%
    08:00 0°C° 0 mm 3 m/s 735 mmHg 94%
    09:00 0°C° 0 mm 4 m/s 735 mmHg 90%
    10:00 +1°C° 0 mm 4 m/s 735 mmHg 85%
    11:00 +3°C° 0 mm 4 m/s 735 mmHg 81%
    12:00 +4°C° 0 mm 4 m/s 734 mmHg 77%
    13:00 +5°C° 0 mm 4 m/s 734 mmHg 73%
    14:00 +6°C° 0 mm 4 m/s 734 mmHg 70%
    15:00 +7°C° 0 mm 3 m/s 733 mmHg 71%
    16:00 +7°C° 0 mm 3 m/s 733 mmHg 73%
    17:00 +5°C° 0 mm 3 m/s 733 mmHg 75%
    18:00 +4°C° 0 mm 3 m/s 732 mmHg 78%
    19:00 +4°C° 0 mm 3 m/s 732 mmHg 82%
    20:00 +3°C° 0 mm 3 m/s 732 mmHg 85%
    21:00 +2°C° 0 mm 3 m/s 732 mmHg 85%
    22:00 +3°C° 0 mm 2 m/s 732 mmHg 85%
    23:00 +3°C° 0 mm 2 m/s 732 mmHg 85%

    Demain, 20 Février, Mercredi

    Heure Température Précipitation Vent Pression Humidité
    00:00 +2°C° 0 mm 3 m/s 732 mmHg 83%
    01:00 +2°C° 0 mm 3 m/s 732 mmHg 81%
    02:00 +1°C° 0 mm 3 m/s 732 mmHg 79%
    03:00 +1°C° 0 mm 3 m/s 732 mmHg 81%
    04:00 +1°C° 0 mm 3 m/s 731 mmHg 83%
    05:00 +1°C° 0 mm 3 m/s 731 mmHg 85%
    06:00 0°C° 0.1 mm 4 m/s 731 mmHg 86%
    07:00 0°C° 0.1 mm 4 m/s 732 mmHg 86%
    08:00 0°C° 0.1 mm 5 m/s 732 mmHg 87%
    09:00 +1°C° 0.1 mm 5 m/s 732 mmHg 85%
    10:00 +2°C° 0.1 mm 6 m/s 732 mmHg 84%
    11:00 +3°C° 0.1 mm 6 m/s 733 mmHg 82%
    12:00 +3°C° 0 mm 6 m/s 733 mmHg 81%
    13:00 +3°C° 0 mm 6 m/s 733 mmHg 80%
    14:00 +3°C° 0 mm 6 m/s 733 mmHg 79%
    15:00 +3°C° 0.1 mm 6 m/s 733 mmHg 76%
    16:00 +3°C° 0.1 mm 6 m/s 733 mmHg 73%
    17:00 +3°C° 0.1 mm 5 m/s 733 mmHg 70%
    18:00 +2°C° 0 mm 5 m/s 733 mmHg 73%
    19:00 +1°C° 0 mm 5 m/s 734 mmHg 77%
    20:00 +1°C° 0 mm 5 m/s 734 mmHg 80%
    21:00 +1°C° 0 mm 5 m/s 734 mmHg 80%
    22:00 +1°C° 0 mm 6 m/s 734 mmHg 79%
    23:00 +1°C° 0 mm 6 m/s 735 mmHg 79%

    Après-demain, 21 Février, Jeudi

    Heure Température Précipitation Vent Pression Humidité
    00:00 +1°C° 0 mm 6 m/s 735 mmHg 81%
    01:00 -1°C° 0 mm 6 m/s 735 mmHg 83%
    02:00 -1°C° 0 mm 6 m/s 735 mmHg 86%
    03:00 -1°C° 0 mm 6 m/s 735 mmHg 87%
    04:00 -1°C° 0 mm 6 m/s 735 mmHg 89%
    05:00 -2°C° 0 mm 6 m/s 735 mmHg 90%
    06:00 -1°C° 0 mm 6 m/s 735 mmHg 89%
    07:00 -1°C° 0 mm 6 m/s 735 mmHg 89%
    08:00 -1°C° 0 mm 6 m/s 735 mmHg 88%
    09:00 -1°C° 0 mm 6 m/s 736 mmHg 84%
    10:00 0°C° 0 mm 7 m/s 736 mmHg 81%
    11:00 0°C° 0 mm 7 m/s 736 mmHg 77%
    12:00 +2°C° 0 mm 7 m/s 735 mmHg 77%
    13:00 +2°C° 0 mm 7 m/s 735 mmHg 77%
    14:00 +2°C° 0 mm 7 m/s 735 mmHg 77%
    15:00 +3°C° 0.1 mm 7 m/s 735 mmHg 78%
    16:00 +3°C° 0.1 mm 6 m/s 735 mmHg 78%
    17:00 +3°C° 0.1 mm 6 m/s 734 mmHg 79%
    18:00 +3°C° 0.1 mm 6 m/s 734 mmHg 80%
    19:00 +2°C° 0.1 mm 6 m/s 734 mmHg 82%
    20:00 +2°C° 0.1 mm 6 m/s 734 mmHg 83%
    21:00 +2°C° 0.2 mm 6 m/s 734 mmHg 84%
    22:00 +2°C° 0.2 mm 6 m/s 734 mmHg 85%
    23:00 +2°C° 0.2 mm 6 m/s 734 mmHg 86%

    22 Février, Vendredi

    Heure Température Précipitation Vent Pression Humidité
    00:00 +2°C° 0.1 mm 5 m/s 733 mmHg 88%
    01:00 +2°C° 0.1 mm 5 m/s 733 mmHg 90%
    02:00 +2°C° 0.1 mm 5 m/s 733 mmHg 91%
    03:00 +1°C° 0.5 mm 4 m/s 733 mmHg 92%
    04:00 +1°C° 0.5 mm 4 m/s 732 mmHg 93%
    05:00 +1°C° 0.5 mm 4 m/s 732 mmHg 94%
    06:00 0°C° 0.6 mm 5 m/s 733 mmHg 92%
    07:00 -3°C° 0.6 mm 6 m/s 733 mmHg 90%
    08:00 -4°C° 0.6 mm 7 m/s 734 mmHg 87%
    09:00 -6°C° 0.2 mm 7 m/s 735 mmHg 84%
    10:00 -6°C° 0.2 mm 7 m/s 735 mmHg 81%
    11:00 -6°C° 0.2 mm 7 m/s 736 mmHg 77%
    12:00 -6°C° 0.1 mm 7 m/s 737 mmHg 73%
    13:00 -6°C° 0.1 mm 7 m/s 738 mmHg 70%
    14:00 -6°C° 0.1 mm 7 m/s 739 mmHg 66%
    15:00 -7°C° 0 mm 7 m/s 740 mmHg 63%
    16:00 -8°C° 0 mm 7 m/s 740 mmHg 61%
    17:00 -8°C° 0 mm 7 m/s 741 mmHg 58%
    18:00 -9°C° 0 mm 7 m/s 741 mmHg 56%
    19:00 -9°C° 0 mm 6 m/s 742 mmHg 55%
    20:00 -9°C° 0 mm 6 m/s 743 mmHg 53%
    21:00 -9°C° 0 mm 6 m/s 743 mmHg 53%
    22:00 -9°C° 0 mm 6 m/s 744 mmHg 53%
    23:00 -9°C° 0 mm 6 m/s 744 mmHg 53%

    23 Février, Samedi

    Heure Température Précipitation Vent Pression Humidité
    00:00 -9°C° 0 mm 6 m/s 744 mmHg 53%
    01:00 -9°C° 0 mm 6 m/s 744 mmHg 53%
    02:00 -10°C° 0 mm 6 m/s 744 mmHg 52%
    03:00 -10°C° 0 mm 6 m/s 744 mmHg 53%
    04:00 -10°C° 0 mm 6 m/s 744 mmHg 54%
    05:00 -10°C° 0 mm 6 m/s 744 mmHg 54%
    06:00 -10°C° 0 mm 6 m/s 744 mmHg 56%
    07:00 -10°C° 0 mm 6 m/s 744 mmHg 57%
    08:00 -10°C° 0 mm 6 m/s 745 mmHg 59%
    09:00 -10°C° 0 mm 6 m/s 745 mmHg 57%
    10:00 -10°C° 0 mm 6 m/s 745 mmHg 55%
    11:00 -8°C° 0 mm 5 m/s 745 mmHg 54%
    12:00 -8°C° 0 mm 5 m/s 745 mmHg 52%
    13:00 -7°C° 0 mm 5 m/s 745 mmHg 51%
    14:00 -7°C° 0 mm 5 m/s 745 mmHg 50%
    15:00 -7°C° 0 mm 5 m/s 744 mmHg 49%
    16:00 -7°C° 0 mm 5 m/s 744 mmHg 49%
    17:00 -7°C° 0 mm 5 m/s 744 mmHg 48%
    18:00 -7°C° 0 mm 5 m/s 745 mmHg 50%
    19:00 -8°C° 0 mm 4 m/s 745 mmHg 51%
    20:00 -7°C° 0 mm 3 m/s 745 mmHg 52%
    21:00 -7°C° 0 mm 3 m/s 745 mmHg 52%
    22:00 -7°C° 0 mm 3 m/s 745 mmHg 53%
    23:00 -8°C° 0 mm 3 m/s 745 mmHg 53%

    24 Février, Dimanche

    Heure Température Précipitation Vent Pression Humidité
    00:00 -7°C° 0 mm 2 m/s 745 mmHg 54%
    01:00 -7°C° 0 mm 2 m/s 745 mmHg 54%
    02:00 -7°C° 0 mm 2 m/s 745 mmHg 55%
    03:00 -8°C° 0 mm 2 m/s 745 mmHg 56%
    04:00 -8°C° 0 mm 2 m/s 745 mmHg 57%
    05:00 -8°C° 0 mm 2 m/s 745 mmHg 58%
    06:00 -9°C° 0 mm 3 m/s 745 mmHg 58%
    07:00 -9°C° 0 mm 3 m/s 746 mmHg 59%
    08:00 -9°C° 0 mm 3 m/s 746 mmHg 59%
    09:00 -9°C° 0 mm 3 m/s 746 mmHg 55%
    10:00 -8°C° 0 mm 3 m/s 746 mmHg 50%
    11:00 -8°C° 0 mm 4 m/s 746 mmHg 46%
    12:00 -7°C° 0 mm 4 m/s 746 mmHg 44%
    13:00 -7°C° 0 mm 4 m/s 746 mmHg 42%
    14:00 -5°C° 0 mm 4 m/s 746 mmHg 39%
    15:00 -5°C° 0 mm 4 m/s 746 mmHg 40%
    16:00 -5°C° 0 mm 4 m/s 746 mmHg 41%
    17:00 -5°C° 0 mm 4 m/s 746 mmHg 42%
    18:00 -5°C° 0 mm 4 m/s 746 mmHg 44%
    19:00 -6°C° 0 mm 3 m/s 746 mmHg 46%
    20:00 -6°C° 0 mm 3 m/s 746 mmHg 48%
    21:00 -6°C° 0 mm 3 m/s 747 mmHg 49%
    22:00 -5°C° 0 mm 2 m/s 747 mmHg 49%
    23:00 -6°C° 0 mm 2 m/s 747 mmHg 50%
    Voir plus